This is the latest recevied weather packets stored in our database for station/object F4ELU-13. If no packets are shown the sender has not sent any weather packets the latest 10 day(s).
| Time | Temp. | Humidity | Pressure | Rain* | Wind** | Luminosity | Snow |
|---|---|---|---|---|---|---|---|
| 1778053503 | 10.56° C | 99% | 1008.5 hPa | 0 mm | - | - | - |
| 1778052963 | 10.56° C | 99% | 1008.5 hPa | 0 mm | - | - | - |
| 1778052423 | 10.56° C | 99% | 1008.3 hPa | 0 mm | - | - | - |
| 1778051883 | 10.56° C | 99% | 1008.3 hPa | 0 mm | - | - | - |
| 1778051343 | 10.56° C | 99% | 1008.1 hPa | 0 mm | - | - | - |
| 1778050803 | 10.56° C | 99% | 1008.2 hPa | 0 mm | - | - | - |
| 1778050443 | 10° C | 99% | 1008.1 hPa | 0 mm | - | - | - |
| 1778049903 | 10° C | 99% | 1008 hPa | 0.25 mm | - | - | - |
| 1778049363 | 10° C | 99% | 1008 hPa | 0.25 mm | - | - | - |
| 1778048823 | 10° C | 99% | 1008 hPa | 0.51 mm | - | - | - |
| 1778048283 | 10° C | 99% | 1007.9 hPa | 0.51 mm | - | - | - |
| 1778047743 | 10° C | 99% | 1007.8 hPa | 1.02 mm | - | - | - |
| 1778047204 | 10° C | 99% | 1008 hPa | 1.02 mm | - | - | - |
| 1778046843 | 10° C | 99% | 1007.8 hPa | 1.02 mm | - | - | - |
| 1778046303 | 10.56° C | 99% | 1007.9 hPa | 1.02 mm | - | - | - |
| 1778045763 | 10.56° C | 99% | 1007.7 hPa | 1.02 mm | - | - | - |
| 1778045223 | 10.56° C | 99% | 1007.7 hPa | 0.51 mm | - | - | - |
| 1778044683 | 10.56° C | 99% | 1007.5 hPa | 0.51 mm | - | - | - |
| 1778044143 | 10.56° C | 99% | 1007.6 hPa | 0.25 mm | - | - | - |
| 1778043603 | 10.56° C | 99% | 1007.4 hPa | 0.25 mm | - | - | - |
| 1778043243 | 10.56° C | 99% | 1007.3 hPa | 0.25 mm | - | - | - |
| 1778042703 | 10.56° C | 99% | 1007.3 hPa | 0 mm | - | - | - |
| 1778042163 | 10.56° C | 99% | 1007.3 hPa | 0 mm | - | - | - |
| 1778041623 | 10.56° C | 99% | 1007.2 hPa | 0 mm | - | - | - |
| 1778041083 | 10.56° C | 99% | 1007.2 hPa | 0.25 mm | - | - | - |
* Rain latest hour (hover to see other rain measurements)
** Current wind speed in m/s (hover to see current wind gust speed)